Open Text Current Ratio 2010-2023 | OTEX

Current and historical current ratio for Open Text (OTEX) from 2010 to 2023. Current ratio can be defined as a liquidity ratio that measures a company's ability to pay short-term obligations. Open Text current ratio for the three months ending December 31, 2023 was 1.38.
Open Text Current Ratio Historical Data
Date Current Assets Current Liabilities Current Ratio
2023-12-31 $4.08B $2.96B 1.38
2023-09-30 $1.95B $2.82B 0.69
2023-06-30 $2.28B $3.22B 0.71
2023-03-31 $2.43B $3.48B 0.70
2022-12-31 $3.46B $1.49B 2.31
2022-09-30 $2.24B $1.58B 1.42
2022-06-30 $2.29B $1.47B 1.56
2022-03-31 $2.23B $1.42B 1.57
2021-12-31 $2.10B $1.30B 1.61
2021-09-30 $2.25B $1.20B 1.88
2021-06-30 $2.20B $1.36B 1.62
2021-03-31 $2.06B $1.34B 1.54
2020-12-31 $2.13B $1.54B 1.39
2020-09-30 $2.44B $1.79B 1.37
2020-06-30 $2.39B $1.90B 1.25
2020-03-31 $2.11B $1.86B 1.14
2019-12-31 $1.35B $2.17B 0.62
2019-09-30 $1.54B $0.95B 1.62
2019-06-30 $1.56B $1.02B 1.54
2019-03-31 $1.40B $1.02B 1.38
2018-12-31 $1.21B $0.91B 1.33
2018-09-30 $1.33B $0.88B 1.51
2018-06-30 $1.33B $1.00B 1.34
2018-03-31 $1.27B $1.30B 0.98
2017-12-31 $1.11B $1.29B 0.86
2017-09-30 $0.96B $1.30B 0.74
2017-06-30 $1.00B $1.13B 0.89
2017-03-31 $0.91B $1.13B 0.81
2016-12-31 $2.12B $0.64B 3.29
2016-09-30 $1.23B $0.67B 1.83
2016-06-30 $1.67B $0.67B 2.49
2016-03-31 $1.26B $0.61B 2.06
2015-12-31 $1.12B $0.56B 2.01
2015-09-30 $1.04B $0.54B 1.94
2015-06-30 $1.07B $0.62B 1.71
2015-03-31 $0.99B $0.60B 1.66
2014-12-31 $0.90B $0.56B 1.60
2014-09-30 $0.82B $0.57B 1.43
2014-06-30 $0.82B $0.64B 1.27
2014-03-31 $0.70B $0.64B 1.10
2013-12-31 $0.76B $0.50B 1.53
2013-09-30 $0.73B $0.52B 1.39
2013-06-30 $0.72B $0.53B 1.36
2013-03-31 $0.71B $0.55B 1.28
2012-12-31 $0.61B $0.48B 1.29
2012-09-30 $0.55B $0.50B 1.10
2012-06-30 $0.79B $0.48B 1.66
2012-03-31 $0.77B $0.48B 1.59
2011-12-31 $0.66B $0.43B 1.54
2011-09-30 $0.35B $0.47B 0.73
2011-06-30 $0.52B $0.42B 1.24
2011-03-31 $0.47B $0.44B 1.07
2010-12-31 $0.55B $0.38B 1.44
2010-09-30 $0.56B $0.40B 1.40
2010-06-30 $0.54B $0.42B 1.28
2010-03-31 $0.51B $0.36B 1.41
2009-12-31 $0.45B $0.33B 1.38
2009-09-30 $0.42B $0.35B 1.22
2009-06-30 $0.44B $0.32B 1.37
2009-03-31 $0.39B $0.32B 1.22
Sector Industry Market Cap Revenue
Computer and Technology Computer Software $9.837B $4.485B
Open Text Corporation is engaged in development of innovative intranet, extranet and e-Business applications. Since creating one of the first search engines to index the World Wide Web, the company has remained at the forefront of Internet-based technologies. Open Text solutions allow individuals, teams, organizations, and global trading communities to collaborate on projects, share ideas and accelerate innovation to the fastest possible speed. Open Text Corporation is headquartered in Waterloo, Canada.
Stock Name Country Market Cap PE Ratio
Microsoft (MSFT) United States $3028.423B 36.85
Oracle (ORCL) United States $316.325B 25.75
Salesforce (CRM) United States $268.380B 44.77
Adobe (ADBE) United States $211.859B 35.42
Intuit (INTU) United States $176.646B 59.24
Synopsys (SNPS) United States $80.444B 58.03
Cadence Design Systems (CDNS) United States $76.706B 73.00
Dassault Systemes SA (DASTY) France $55.010B 36.05
Autodesk (ADSK) United States $46.615B 45.88
ANSYS (ANSS) United States $28.457B 48.01
MicroStrategy (MSTR) United States $22.714B 45.26
PTC (PTC) United States $21.572B 63.53
SS&C Technologies Holdings (SSNC) United States $15.076B 14.84
Manhattan Associates (MANH) United States $14.200B 75.37
Descartes Systems Group (DSGX) Canada $8.016B 70.22
Trend Micro (TMICY) Japan $7.326B 65.00
Pegasystems (PEGA) United States $4.976B 68.16
CommVault Systems (CVLT) United States $4.254B 75.91
Blackbaud (BLKB) United States $4.234B 37.88
ACI Worldwide (ACIW) United States $3.555B 18.28
Progress Software (PRGS) United States $2.257B 14.13
Verint Systems (VRNT) United States $1.893B 17.65
BlackBerry (BB) Canada $1.703B 0.00
Sapiens (SPNS) Israel $1.692B 23.98
PROS Holdings (PRO) United States $1.610B 0.00
Simulations Plus (SLP) United States $0.919B 67.65
Magic Software Enterprises (MGIC) Israel $0.577B 11.87
Rand Worldwide (RWWI) United States $0.574B 0.00
American Software (AMSWA) United States $0.349B 29.19
Canaan (CAN) China $0.222B 0.00
Rigetti Computing (RGTI) United States $0.189B 0.00
OptimizeRx (OPRX) United States $0.163B 0.00
Icad Inc (ICAD) United States $0.041B 0.00
Wetouch Technology (WETH) $0.032B 0.00
NetSol Technologies (NTWK) United States $0.031B 0.00
Hanryu Holdings (HRYU) South Korea $0.028B 0.00
Neonode (NEON) Sweden $0.026B 0.00
Smith Micro Software (SMSI) United States $0.020B 0.00
GSE Systems (GVP) United States $0.009B 0.00
SAP SE (SAP) Germany $0.000B 48.08